Fort Campbell, KY

7:53 PM CDT on October 17, 2017 (GMT -0500)
Campbell Army Air Field

Weather History for KHOP - April, 2013

Change the Weather History Date:

Tuesday, April 23, 2013

  Actual Average Record
Temperature  
Mean Temperature 64 °F -  
Max Temperature 74 °F 70 °F 84 °F (1999)
Min Temperature 55 °F 49 °F 37 °F (2005)
Growing Degree Days 14 (Base 50)    
Moisture  
Dew Point 50 °F    
Average Humidity 58    
Maximum Humidity 76    
Minimum Humidity 46    
Precipitation  
Precipitation 0.00 in - - ()
Sea Level Pressure  
Sea Level Pressure 30.01 in    
Wind  
Wind Speed 9 mph (South)    
Max Wind Speed 18 mph    
Max Gust Speed 28 mph    
Visibility 10 miles    
Events      
Averages and records for this station are not official NWS values.
T = Trace of Precipitation, MM = Missing Value Source: NWS Daily Summary

Daily Weather History Graph

Daily Weather History Graph

Search for Another Location

Airport or City:

Trip Planner

Search our weather history database for the weather conditions in past years. The results will help you decide how hot, cold, wet, or windy it might be!

Date:

Astronomy

Apr. 23, 2013 Rise Set
Actual Time 6:05 AM CDT 7:31 PM CDT
Civil Twilight 5:38 AM CDT 7:58 PM CDT
Nautical Twilight 5:05 AM CDT 8:31 PM CDT
Astronomical Twilight 4:31 AM CDT 9:05 PM CDT
Moon 5:28 PM CDT (4/23) 4:29 AM CDT (4/23)
Length of Visible Light 14h 20m
Length of Day
13h 26m
Waxing Gibbous, 94% of the Moon is Illuminated
Apr 23
Waxing Gibbous
Apr 25
Full
May 2
Last Quarter
May 9
New
May 17
First Quarter

Hourly Weather History & Observations

Time (CDT) Temp. Dew Point Humidity Pressure Visibility Wind Dir Wind Speed Gust Speed Precip Events Conditions
12:58 AM 57.7 °F 43.3 °F 59% 30.11 in 10.0 mi SE 3.5 mph - N/A   Partly Cloudy
1:58 AM 58.5 °F 43.0 °F 56% 30.09 in 10.0 mi SSE 5.8 mph - N/A   Partly Cloudy
2:58 AM 58.3 °F 44.6 °F 60% 30.06 in 10.0 mi SSE 8.1 mph - N/A   Clear
3:58 AM 58.1 °F 45.3 °F 62% 30.06 in 10.0 mi SSE 6.9 mph - N/A   Partly Cloudy
4:58 AM 56.1 °F 46.0 °F 69% 30.07 in 10.0 mi SE 5.8 mph - N/A   Partly Cloudy
5:58 AM 55.0 °F 46.6 °F 73% 30.07 in 10.0 mi SE 5.8 mph - N/A   Mostly Cloudy
6:58 AM 55.4 °F 48.0 °F 76% 30.09 in 10.0 mi SE 5.8 mph - N/A   Mostly Cloudy
7:58 AM 60.8 °F 49.6 °F 67% 30.10 in 10.0 mi South 8.1 mph - N/A   Scattered Clouds
8:58 AM 65.5 °F 50.4 °F 58% 30.08 in 10.0 mi South 17.3 mph 23.0 mph N/A   Clear
9:58 AM 65.5 °F 51.1 °F 60% 30.09 in 10.0 mi South 15.0 mph 23.0 mph N/A   Scattered Clouds
10:58 AM 65.8 °F 50.4 °F 57% 30.08 in 10.0 mi SSE 9.2 mph 19.6 mph N/A   Partly Cloudy
11:58 AM 69.4 °F 51.1 °F 52% 30.09 in 10.0 mi South 10.4 mph 23.0 mph N/A   Mostly Cloudy
12:58 PM 69.4 °F 51.6 °F 53% 30.06 in 10.0 mi South 10.4 mph - N/A   Mostly Cloudy
1:58 PM 72.5 °F 52.9 °F 50% 30.02 in 10.0 mi South 13.8 mph 20.7 mph N/A   Mostly Cloudy
2:58 PM 73.9 °F 52.3 °F 47% 29.98 in 10.0 mi SSE 11.5 mph 23.0 mph N/A   Scattered Clouds
3:58 PM 73.0 °F 50.9 °F 46% 29.96 in 10.0 mi South 10.4 mph - N/A   Mostly Cloudy
4:58 PM 73.6 °F 51.8 °F 46% 29.94 in 10.0 mi South 10.4 mph - N/A   Mostly Cloudy
5:58 PM 74.1 °F 52.0 °F 46% 29.93 in 10.0 mi SSW 18.4 mph 27.6 mph N/A   Scattered Clouds
6:58 PM 72.1 °F 52.5 °F 50% 29.92 in 10.0 mi South 12.7 mph - N/A   Scattered Clouds
7:58 PM 70.5 °F 52.9 °F 54% 29.93 in 10.0 mi South 9.2 mph - N/A   Scattered Clouds
8:16 PM 69.8 °F 53.6 °F 56% 29.93 in 10.0 mi South 11.5 mph - N/A   Light Drizzle
8:32 PM 69.8 °F 53.6 °F 56% 29.94 in 10.0 mi South 8.1 mph - N/A   Partly Cloudy
8:58 PM 68.9 °F 53.8 °F 58% 29.94 in 10.0 mi South 11.5 mph - 0.00 in   Partly Cloudy
9:58 PM 67.5 °F 54.0 °F 62% 29.94 in 10.0 mi South 11.5 mph 19.6 mph N/A   Clear
10:58 PM 67.5 °F 54.3 °F 63% 29.93 in 10.0 mi South 10.4 mph - N/A   Partly Cloudy
11:58 PM 66.7 °F 54.9 °F 66% 29.92 in 10.0 mi South 12.7 mph 19.6 mph N/A   Clear